When you browse on this site, cookies collect data to enhance your experience and personalize the content and advertising you see.
Visit our Privacy Policy to learn more. By continuing to use the site, you agree to this use of cookies and data.
  • Em Portugal
  • Lista de países
  • Para 7 dias
  • Temperatura da água
  • Mapa do tempo
  • Widgets de tempo
  • user-avatar
    Iniciar Sessão

    Previsão horária em Irset

    Hoje, 21 Agosto, Quarta-feira

    Tempo Temperatura Precipitação Vento Pressão Humidade
    00:00 +18°C° 0 mm 1 m/s 751 mmHg 92%
    01:00 +18°C° 0 mm 1 m/s 751 mmHg 92%
    02:00 +18°C° 0 mm 1 m/s 751 mmHg 92%
    03:00 +16°C° 0 mm 1 m/s 751 mmHg 93%
    04:00 +18°C° 0 mm 1 m/s 751 mmHg 93%
    05:00 +18°C° 0 mm 1 m/s 751 mmHg 93%
    06:00 +18°C° 0 mm 1 m/s 751 mmHg 93%
    07:00 +18°C° 0 mm 2 m/s 752 mmHg 87%
    08:00 +20°C° 0 mm 2 m/s 752 mmHg 81%
    09:00 +23°C° 0 mm 2 m/s 752 mmHg 75%
    10:00 +24°C° 0 mm 2 m/s 752 mmHg 71%
    11:00 +25°C° 0 mm 2 m/s 752 mmHg 67%
    12:00 +26°C° 0 mm 2 m/s 752 mmHg 63%
    13:00 +26°C° 0 mm 2 m/s 752 mmHg 62%
    14:00 +26°C° 0 mm 2 m/s 751 mmHg 61%
    15:00 +27°C° 0 mm 2 m/s 751 mmHg 60%
    16:00 +26°C° 0 mm 2 m/s 751 mmHg 65%
    17:00 +25°C° 0 mm 2 m/s 751 mmHg 70%
    18:00 +25°C° 0 mm 2 m/s 751 mmHg 75%
    19:00 +23°C° 0 mm 1 m/s 751 mmHg 78%
    20:00 +22°C° 0 mm 1 m/s 751 mmHg 81%
    21:00 +21°C° 0 mm 1 m/s 751 mmHg 84%
    22:00 +20°C° 0 mm 1 m/s 751 mmHg 85%
    23:00 +18°C° 0 mm 0 m/s 751 mmHg 86%

    Amanhã, 22 Agosto, Quinta-feira

    Tempo Temperatura Precipitação Vento Pressão Humidade
    00:00 +18°C° 0 mm 0 m/s 751 mmHg 87%
    01:00 +17°C° 0 mm 0 m/s 751 mmHg 88%
    02:00 +17°C° 0 mm 0 m/s 751 mmHg 89%
    03:00 +17°C° 0 mm 0 m/s 751 mmHg 89%
    04:00 +17°C° 0 mm 0 m/s 751 mmHg 89%
    05:00 +17°C° 0 mm 0 m/s 750 mmHg 89%
    06:00 +17°C° 0 mm 0 m/s 750 mmHg 89%
    07:00 +19°C° 0 mm 0 m/s 750 mmHg 83%
    08:00 +22°C° 0 mm 1 m/s 750 mmHg 78%
    09:00 +24°C° 0 mm 1 m/s 751 mmHg 72%
    10:00 +25°C° 0 mm 1 m/s 750 mmHg 68%
    11:00 +26°C° 0 mm 1 m/s 750 mmHg 64%
    12:00 +27°C° 0 mm 1 m/s 750 mmHg 59%
    13:00 +27°C° 0 mm 1 m/s 750 mmHg 58%
    14:00 +27°C° 0 mm 1 m/s 749 mmHg 57%
    15:00 +28°C° 0 mm 1 m/s 749 mmHg 55%
    16:00 +27°C° 0 mm 1 m/s 749 mmHg 60%
    17:00 +26°C° 0 mm 1 m/s 749 mmHg 64%
    18:00 +26°C° 0 mm 1 m/s 748 mmHg 69%
    19:00 +24°C° 0 mm 1 m/s 749 mmHg 72%
    20:00 +23°C° 0 mm 1 m/s 749 mmHg 75%
    21:00 +21°C° 0 mm 1 m/s 749 mmHg 77%
    22:00 +21°C° 0 mm 1 m/s 749 mmHg 79%
    23:00 +21°C° 0 mm 1 m/s 749 mmHg 80%

    Depois de amanhã, 23 Agosto, Sexta-feira

    Tempo Temperatura Precipitação Vento Pressão Humidade
    00:00 +20°C° 0 mm 1 m/s 749 mmHg 82%
    01:00 +19°C° 0 mm 2 m/s 750 mmHg 86%
    02:00 +19°C° 0 mm 3 m/s 750 mmHg 90%
    03:00 +18°C° 0 mm 3 m/s 750 mmHg 95%
    04:00 +18°C° 0 mm 4 m/s 750 mmHg 93%
    05:00 +17°C° 0 mm 4 m/s 750 mmHg 92%
    06:00 +15°C° 0 mm 4 m/s 750 mmHg 91%
    07:00 +17°C° 0 mm 4 m/s 751 mmHg 87%
    08:00 +17°C° 0 mm 4 m/s 751 mmHg 83%
    09:00 +18°C° 0 mm 4 m/s 751 mmHg 79%
    10:00 +19°C° 0 mm 4 m/s 751 mmHg 74%
    11:00 +20°C° 0 mm 4 m/s 752 mmHg 68%
    12:00 +21°C° 0 mm 4 m/s 752 mmHg 63%
    13:00 +21°C° 0 mm 4 m/s 752 mmHg 61%
    14:00 +22°C° 0 mm 4 m/s 752 mmHg 59%
    15:00 +22°C° 0 mm 4 m/s 752 mmHg 58%
    16:00 +21°C° 0 mm 4 m/s 752 mmHg 62%
    17:00 +20°C° 0 mm 3 m/s 752 mmHg 66%
    18:00 +19°C° 0 mm 3 m/s 752 mmHg 71%
    19:00 +18°C° 0 mm 2 m/s 752 mmHg 73%
    20:00 +17°C° 0 mm 2 m/s 752 mmHg 74%
    21:00 +16°C° 0 mm 2 m/s 752 mmHg 76%
    22:00 +15°C° 0 mm 2 m/s 752 mmHg 77%
    23:00 +15°C° 0 mm 2 m/s 752 mmHg 79%

    24 Agosto, Sábado

    Tempo Temperatura Precipitação Vento Pressão Humidade
    00:00 +15°C° 0 mm 2 m/s 752 mmHg 80%
    01:00 +14°C° 0 mm 2 m/s 752 mmHg 81%
    02:00 +14°C° 0 mm 2 m/s 752 mmHg 83%
    03:00 +13°C° 0 mm 2 m/s 752 mmHg 85%
    04:00 +13°C° 0 mm 1 m/s 752 mmHg 85%
    05:00 +13°C° 0 mm 1 m/s 753 mmHg 86%
    06:00 +14°C° 0 mm 1 m/s 753 mmHg 87%
    07:00 +15°C° 0 mm 1 m/s 753 mmHg 81%
    08:00 +17°C° 0 mm 2 m/s 753 mmHg 74%
    09:00 +19°C° 0 mm 2 m/s 753 mmHg 68%
    10:00 +20°C° 0 mm 2 m/s 753 mmHg 63%
    11:00 +21°C° 0 mm 2 m/s 753 mmHg 59%
    12:00 +23°C° 0 mm 2 m/s 753 mmHg 54%
    13:00 +23°C° 0 mm 2 m/s 753 mmHg 52%
    14:00 +24°C° 0 mm 2 m/s 752 mmHg 51%
    15:00 +24°C° 0 mm 2 m/s 752 mmHg 50%
    16:00 +23°C° 0 mm 2 m/s 752 mmHg 55%
    17:00 +21°C° 0 mm 2 m/s 752 mmHg 60%
    18:00 +21°C° 0 mm 1 m/s 752 mmHg 65%
    19:00 +20°C° 0 mm 1 m/s 752 mmHg 68%
    20:00 +16°C° 0 mm 0 m/s 752 mmHg 71%
    21:00 +15°C° 0 mm 0 m/s 752 mmHg 73%
    22:00 +14°C° 0 mm 0 m/s 751 mmHg 75%
    23:00 +15°C° 0 mm 1 m/s 751 mmHg 76%

    25 Agosto, Domingo

    Tempo Temperatura Precipitação Vento Pressão Humidade
    00:00 +15°C° 0 mm 1 m/s 751 mmHg 77%
    01:00 +14°C° 0 mm 2 m/s 751 mmHg 79%
    02:00 +14°C° 0 mm 2 m/s 751 mmHg 81%
    03:00 +14°C° 0 mm 2 m/s 750 mmHg 83%
    04:00 +14°C° 0 mm 2 m/s 750 mmHg 83%
    05:00 +14°C° 0 mm 2 m/s 750 mmHg 84%
    06:00 +13°C° 0 mm 3 m/s 750 mmHg 84%
    07:00 +16°C° 0 mm 3 m/s 750 mmHg 79%
    08:00 +17°C° 0 mm 3 m/s 750 mmHg 74%
    09:00 +19°C° 0 mm 4 m/s 749 mmHg 69%
    10:00 +20°C° 0 mm 4 m/s 749 mmHg 65%
    11:00 +22°C° 0 mm 4 m/s 749 mmHg 62%
    12:00 +23°C° 0 mm 5 m/s 749 mmHg 59%
    13:00 +23°C° 0 mm 5 m/s 748 mmHg 58%
    14:00 +23°C° 0 mm 5 m/s 748 mmHg 57%
    15:00 +23°C° 0 mm 5 m/s 748 mmHg 57%
    16:00 +22°C° 0.4 mm 5 m/s 748 mmHg 66%
    17:00 +20°C° 0.4 mm 5 m/s 748 mmHg 74%
    18:00 +18°C° 0.4 mm 4 m/s 747 mmHg 83%
    19:00 +17°C° 0.2 mm 4 m/s 748 mmHg 86%
    20:00 +17°C° 0.2 mm 3 m/s 748 mmHg 90%
    21:00 +16°C° 0.2 mm 3 m/s 748 mmHg 93%
    22:00 +14°C° 0.1 mm 3 m/s 748 mmHg 92%
    23:00 +13°C° 0.1 mm 3 m/s 749 mmHg 92%

    26 Agosto, Segunda-feira

    Tempo Temperatura Precipitação Vento Pressão Humidade
    00:00 +12°C° 0.1 mm 3 m/s 749 mmHg 91%
    01:00 +12°C° 0 mm 3 m/s 749 mmHg 93%
    02:00 +11°C° 0 mm 3 m/s 750 mmHg 94%
    03:00 +10°C° 0 mm 3 m/s 750 mmHg 95%
    04:00 +10°C° 0 mm 3 m/s 750 mmHg 96%
    05:00 +10°C° 0 mm 4 m/s 751 mmHg 96%
    06:00 +10°C° 0 mm 4 m/s 751 mmHg 96%
    07:00 +11°C° 0 mm 4 m/s 752 mmHg 90%
    08:00 +12°C° 0 mm 4 m/s 752 mmHg 85%
    09:00 +13°C° 0 mm 5 m/s 753 mmHg 80%
    10:00 +13°C° 0 mm 4 m/s 753 mmHg 77%
    11:00 +13°C° 0 mm 4 m/s 753 mmHg 73%
    12:00 +14°C° 0 mm 4 m/s 753 mmHg 70%
    13:00 +14°C° 0 mm 4 m/s 753 mmHg 67%
    14:00 +15°C° 0 mm 4 m/s 754 mmHg 64%
    15:00 +17°C° 0 mm 4 m/s 754 mmHg 61%
    16:00 +17°C° 0 mm 3 m/s 754 mmHg 65%
    17:00 +16°C° 0 mm 3 m/s 754 mmHg 69%
    18:00 +16°C° 0 mm 2 m/s 754 mmHg 73%
    19:00 +14°C° 0 mm 2 m/s 754 mmHg 77%
    20:00 +13°C° 0 mm 2 m/s 754 mmHg 81%
    21:00 +10°C° 0 mm 2 m/s 754 mmHg 85%
    22:00 +10°C° 0 mm 2 m/s 754 mmHg 87%
    23:00 +10°C° 0 mm 1 m/s 754 mmHg 88%
    Mostrar mais